ELY578 LROP-LLBG

Flight info

Callsign ELY578
Flight time 2h 2m
Altitude 39000
Route IDARU DCT EFJAS DCT MAXOV DCT IVGOT L744 MATEL N616 RIXEN UL620 TETSA UN616 UNSAV UL620 FATIH UG1 IST UT35 AYT UA16 DERYA UM855 TOMBI DCT IDAKU L35 PIKOG L609 ZUKKO
Aircraft B772/H-SDE2E3FGHIJ4J5LM1OP2RVWXY/LB1D1

Departure

Time 2026-05-07 18:38
Airport Bucharest Henri Coandă International Airport (LROP)

Arrival

Time 2026-05-07 20:40
Airport Ben Gurion International Airport (LLBG)
Time Latitude Longitude Altitude Speed Heading
2026-05-07 18:03 44.57033 26.08264 326 ft 0 kts 309°
2026-05-07 18:27 44.57032 26.08265 326 ft 2 kts 309°
2026-05-07 18:27 44.57022 26.08283 322 ft 2 kts 309°
2026-05-07 18:28 44.57012 26.08301 322 ft 2 kts 309°
2026-05-07 18:28 44.57001 26.08319 322 ft 2 kts 309°
2026-05-07 18:28 44.56991 26.08337 321 ft 2 kts 309°
2026-05-07 18:28 44.56981 26.08356 321 ft 2 kts 264°
2026-05-07 18:29 44.56986 26.08378 321 ft 2 kts 222°
2026-05-07 18:29 44.57001 26.08389 321 ft 2 kts 174°
2026-05-07 18:29 44.57017 26.08386 321 ft 2 kts 174°
2026-05-07 18:29 44.57034 26.08384 322 ft 2 kts 174°
2026-05-07 18:30 44.57049 26.08382 322 ft 1 kts 174°
2026-05-07 18:30 44.57053 26.08381 322 ft 0 kts 173°
2026-05-07 18:32 44.56987 26.08392 321 ft 8 kts 174°
2026-05-07 18:32 44.56937 26.08399 325 ft 7 kts 174°
2026-05-07 18:32 44.56900 26.08442 323 ft 12 kts 105°
2026-05-07 18:32 44.56928 26.08538 324 ft 12 kts 21°
2026-05-07 18:33 44.57010 26.08536 324 ft 12 kts 354°
2026-05-07 18:33 44.57066 26.08528 323 ft 7 kts 354°
2026-05-07 18:33 44.57115 26.08521 325 ft 7 kts 354°
2026-05-07 18:33 44.57164 26.08514 323 ft 7 kts 354°
2026-05-07 18:34 44.57233 26.08503 323 ft 13 kts 354°
2026-05-07 18:34 44.57327 26.08489 323 ft 13 kts 354°
2026-05-07 18:34 44.57420 26.08476 324 ft 13 kts 354°
2026-05-07 18:34 44.57502 26.08464 323 ft 8 kts 354°
2026-05-07 18:35 44.57523 26.08461 324 ft 9 kts 354°
2026-05-07 18:35 44.57585 26.08452 326 ft 9 kts 354°
2026-05-07 18:35 44.57645 26.08447 325 ft 8 kts
2026-05-07 18:35 44.57663 26.08486 326 ft 9 kts 70°
2026-05-07 18:36 44.57667 26.08516 326 ft 0 kts 83°
2026-05-07 18:36 44.57668 26.08519 326 ft 4 kts 84°
2026-05-07 18:36 44.57668 26.08529 326 ft 1 kts 84°
2026-05-07 18:37 44.57669 26.08542 328 ft 6 kts 84°
2026-05-07 18:37 44.57701 26.08950 322 ft 82 kts 84°
2026-05-07 18:37 44.57788 26.10090 323 ft 151 kts 84°
2026-05-07 18:37 44.57915 26.11687 864 ft 165 kts 84°
2026-05-07 18:38 44.58046 26.13361 1595 ft 178 kts 85°
2026-05-07 18:38 44.58174 26.15107 2411 ft 185 kts 86°
2026-05-07 18:38 44.58305 26.17054 2888 ft 216 kts 86°
2026-05-07 18:38 44.58460 26.19317 3268 ft 247 kts 85°
2026-05-07 18:39 44.58637 26.21835 3818 ft 267 kts 85°
2026-05-07 18:39 44.58827 26.24469 4507 ft 275 kts 85°
2026-05-07 18:39 44.59025 26.27177 5247 ft 281 kts 84°
2026-05-07 18:39 44.59228 26.29923 6012 ft 285 kts 84°
2026-05-07 18:40 44.59232 26.32691 6564 ft 289 kts 104°
2026-05-07 18:40 44.58347 26.35303 6735 ft 305 kts 126°
2026-05-07 18:40 44.57118 26.37838 7151 ft 320 kts 126°
2026-05-07 18:40 44.55872 26.40426 7841 ft 327 kts 126°
2026-05-07 18:41 44.54587 26.43089 8640 ft 331 kts 126°
2026-05-07 18:41 44.53274 26.45803 9509 ft 333 kts 126°
2026-05-07 18:41 44.51970 26.48498 10298 ft 336 kts 126°
2026-05-07 18:41 44.50666 26.51192 11126 ft 340 kts 126°
2026-05-07 18:42 44.49332 26.53946 12124 ft 343 kts 126°
2026-05-07 18:42 44.47989 26.56721 13197 ft 345 kts 125°
2026-05-07 18:42 44.46638 26.59511 14215 ft 349 kts 125°
2026-05-07 18:42 44.45259 26.62354 15044 ft 357 kts 125°
2026-05-07 18:43 44.43847 26.65258 15856 ft 364 kts 125°
2026-05-07 18:43 44.42409 26.68218 16703 ft 370 kts 125°
2026-05-07 18:43 44.40947 26.71222 17530 ft 376 kts 125°
2026-05-07 18:43 44.39460 26.74271 18368 ft 383 kts 125°
2026-05-07 18:44 44.37951 26.77363 19111 ft 388 kts 125°
2026-05-07 18:44 44.36418 26.80498 19903 ft 392 kts 125°
2026-05-07 18:44 44.34871 26.83658 20708 ft 396 kts 125°
2026-05-07 18:44 44.33303 26.86860 21493 ft 401 kts 125°
2026-05-07 18:45 44.31716 26.90098 22267 ft 406 kts 125°
2026-05-07 18:45 44.30109 26.93374 23026 ft 412 kts 124°
2026-05-07 18:45 44.28475 26.96702 23760 ft 417 kts 124°
2026-05-07 18:45 44.26849 27.00009 24400 ft 421 kts 125°
2026-05-07 18:46 44.25181 27.03399 25075 ft 425 kts 125°
2026-05-07 18:46 44.23499 27.06813 25757 ft 428 kts 125°
2026-05-07 18:46 44.21800 27.10256 26411 ft 432 kts 125°
2026-05-07 18:46 44.20086 27.13726 27024 ft 437 kts 125°
2026-05-07 18:47 44.18351 27.17233 27602 ft 442 kts 125°
2026-05-07 18:47 44.16598 27.20774 28193 ft 446 kts 125°
2026-05-07 18:47 44.14830 27.24340 28758 ft 450 kts 125°
2026-05-07 18:47 44.13040 27.27948 29305 ft 455 kts 125°
2026-05-07 18:48 44.11232 27.31587 29838 ft 459 kts 125°
2026-05-07 18:48 44.09408 27.35254 30303 ft 463 kts 125°
2026-05-07 18:48 44.07565 27.38955 30710 ft 467 kts 125°
2026-05-07 18:48 44.05705 27.42686 31114 ft 471 kts 125°
2026-05-07 18:49 44.04451 27.45160 31368 ft 474 kts 128°
2026-05-07 18:49 44.02306 27.48643 31739 ft 476 kts 136°
2026-05-07 18:49 43.99846 27.51729 32149 ft 478 kts 143°
2026-05-07 18:49 43.97142 27.54410 32532 ft 478 kts 151°
2026-05-07 18:50 43.94272 27.56767 32916 ft 481 kts 152°
2026-05-07 18:50 43.91363 27.59094 33286 ft 484 kts 153°
2026-05-07 18:50 43.88443 27.61427 33650 ft 486 kts 153°
2026-05-07 18:50 43.85508 27.63795 34031 ft 489 kts 152°
2026-05-07 18:51 43.82568 27.66188 34353 ft 491 kts 152°
2026-05-07 18:51 43.79624 27.68599 34638 ft 493 kts 152°
2026-05-07 18:51 43.76663 27.71028 34910 ft 495 kts 152°
2026-05-07 18:51 43.73697 27.73459 35257 ft 496 kts 152°
2026-05-07 18:52 43.70733 27.75885 35684 ft 494 kts 152°
2026-05-07 18:52 43.67786 27.78293 36121 ft 492 kts 152°
2026-05-07 18:52 43.64836 27.80698 36527 ft 491 kts 152°
2026-05-07 18:52 43.61960 27.83266 36914 ft 492 kts 146°
2026-05-07 18:53 43.59263 27.86177 37298 ft 493 kts 141°
2026-05-07 18:53 43.56782 27.89437 37652 ft 494 kts 136°
2026-05-07 18:53 43.54382 27.92825 38026 ft 493 kts 136°
2026-05-07 18:53 43.52002 27.96210 38395 ft 492 kts 136°
2026-05-07 18:54 43.49614 27.99595 38780 ft 491 kts 136°
2026-05-07 18:54 43.47252 28.02920 38986 ft 492 kts 136°
2026-05-07 18:54 43.44841 28.06289 39046 ft 495 kts 136°
2026-05-07 18:55 43.39987 28.13027 39093 ft 494 kts 136°
2026-05-07 18:55 43.35141 28.19730 39396 ft 494 kts 136°
2026-05-07 18:55 43.32713 28.23084 39678 ft 493 kts 136°
2026-05-07 18:56 43.30290 28.26427 39949 ft 492 kts 136°
2026-05-07 18:56 43.27875 28.29757 40176 ft 493 kts 136°
2026-05-07 18:56 43.25452 28.33094 40380 ft 493 kts 136°
2026-05-07 18:56 43.23031 28.36424 40589 ft 493 kts 136°
2026-05-07 18:57 43.20605 28.39757 40816 ft 494 kts 136°
2026-05-07 18:57 43.18182 28.43085 40999 ft 494 kts 136°
2026-05-07 18:57 43.15749 28.46419 41066 ft 496 kts 136°
2026-05-07 18:58 43.11386 28.53710 41151 ft 498 kts 120°
2026-05-07 18:58 43.08752 28.62360 41121 ft 496 kts 102°
2026-05-07 18:59 43.06621 28.71229 41137 ft 493 kts 123°
2026-05-07 18:59 43.04415 28.74786 41114 ft 491 kts 142°
2026-05-07 18:59 43.01550 28.77262 41141 ft 486 kts 158°
2026-05-07 18:59 42.98355 28.78733 41116 ft 484 kts 171°
2026-05-07 19:00 42.95035 28.79152 41113 ft 476 kts 184°
2026-05-07 19:00 42.88392 28.78849 41131 ft 480 kts 185°
2026-05-07 19:01 42.81695 28.78551 41133 ft 483 kts 184°
2026-05-07 19:01 42.74951 28.78335 41127 ft 486 kts 184°
2026-05-07 19:02 42.68175 28.78159 41126 ft 487 kts 184°
2026-05-07 19:02 42.61434 28.78000 41115 ft 487 kts 184°
2026-05-07 19:03 42.54670 28.77825 41117 ft 485 kts 184°
2026-05-07 19:03 42.47933 28.77637 41125 ft 483 kts 184°
2026-05-07 19:04 42.41216 28.77459 41127 ft 482 kts 184°
2026-05-07 19:04 42.34524 28.77285 41114 ft 481 kts 184°
2026-05-07 19:05 42.27828 28.77110 41119 ft 481 kts 184°
2026-05-07 19:05 42.21123 28.76936 41112 ft 482 kts 184°
2026-05-07 19:06 42.14416 28.76761 41116 ft 482 kts 184°
2026-05-07 19:06 42.04327 28.76621 41116 ft 484 kts 181°
2026-05-07 19:07 41.97582 28.76960 41117 ft 485 kts 181°
2026-05-07 19:07 41.90881 28.77266 41116 ft 485 kts 181°
2026-05-07 19:08 41.84139 28.77516 41111 ft 485 kts 181°
2026-05-07 19:08 41.77388 28.77787 41114 ft 485 kts 181°
2026-05-07 19:09 41.70639 28.78061 41109 ft 485 kts 181°
2026-05-07 19:09 41.63891 28.78340 41108 ft 485 kts 181°
2026-05-07 19:10 41.57149 28.78617 41102 ft 485 kts 181°
2026-05-07 19:10 41.50394 28.78894 41100 ft 485 kts 181°
2026-05-07 19:11 41.43650 28.79159 41104 ft 485 kts 181°
2026-05-07 19:11 41.36905 28.79396 41103 ft 485 kts 181°
2026-05-07 19:12 41.30206 28.79634 41101 ft 485 kts 181°
2026-05-07 19:12 41.23463 28.79876 41103 ft 485 kts 181°
2026-05-07 19:13 41.16718 28.80159 41101 ft 485 kts 181°
2026-05-07 19:13 41.09964 28.80483 41102 ft 485 kts 181°
2026-05-07 19:14 41.03217 28.80782 41101 ft 485 kts 181°
2026-05-07 19:14 40.96483 28.81690 41105 ft 489 kts 171°
2026-05-07 19:15 40.89942 28.84303 41100 ft 494 kts 160°
2026-05-07 19:15 40.83595 28.87808 41102 ft 494 kts 159°
2026-05-07 19:16 40.77253 28.91348 41099 ft 495 kts 160°
2026-05-07 19:16 40.70887 28.94840 41096 ft 495 kts 160°
2026-05-07 19:17 40.64555 28.98274 41099 ft 496 kts 160°
2026-05-07 19:17 40.58179 29.01718 41099 ft 496 kts 160°
2026-05-07 19:18 40.51784 29.05169 41092 ft 496 kts 160°
2026-05-07 19:18 40.45388 29.08615 41102 ft 496 kts 160°
2026-05-07 19:19 40.38999 29.12051 41105 ft 496 kts 160°
2026-05-07 19:19 40.32605 29.15482 41109 ft 496 kts 160°
2026-05-07 19:20 40.26207 29.18908 41116 ft 497 kts 160°
2026-05-07 19:20 40.19810 29.22327 41123 ft 497 kts 160°
2026-05-07 19:21 40.13414 29.25738 41122 ft 497 kts 160°
2026-05-07 19:21 40.07049 29.29126 41133 ft 497 kts 160°
2026-05-07 19:22 40.00651 29.32525 41127 ft 496 kts 160°
2026-05-07 19:22 39.94254 29.35918 41141 ft 497 kts 160°
2026-05-07 19:23 39.87833 29.39341 41148 ft 499 kts 160°
2026-05-07 19:23 39.81444 29.42867 41145 ft 499 kts 159°
2026-05-07 19:24 39.75046 29.46403 41149 ft 500 kts 159°
2026-05-07 19:24 39.68637 29.49919 41146 ft 500 kts 160°
2026-05-07 19:25 39.62230 29.53397 41153 ft 499 kts 161°
2026-05-07 19:25 39.55755 29.56657 41154 ft 499 kts 162°
2026-05-07 19:26 39.49261 29.59846 41159 ft 499 kts 162°
2026-05-07 19:26 39.42774 29.63056 41161 ft 499 kts 161°
2026-05-07 19:27 39.36331 29.66263 41164 ft 500 kts 161°
2026-05-07 19:27 39.29844 29.69491 41168 ft 500 kts 161°
2026-05-07 19:28 39.23353 29.72712 41170 ft 500 kts 161°
2026-05-07 19:28 39.16852 29.75930 41177 ft 500 kts 161°
2026-05-07 19:29 39.10350 29.79142 41171 ft 500 kts 162°
2026-05-07 19:29 39.03852 29.82347 41180 ft 500 kts 162°
2026-05-07 19:30 38.97351 29.85547 41179 ft 500 kts 162°
2026-05-07 19:30 38.90849 29.88741 41184 ft 500 kts 162°
2026-05-07 19:31 38.84378 29.91875 41184 ft 500 kts 162°
2026-05-07 19:31 38.77852 29.94964 41195 ft 501 kts 162°
2026-05-07 19:32 38.71312 29.98054 41181 ft 501 kts 162°
2026-05-07 19:32 38.64769 30.01151 41193 ft 501 kts 162°
2026-05-07 19:33 38.58231 30.04244 41196 ft 501 kts 162°
2026-05-07 19:33 38.51685 30.07334 41192 ft 501 kts 162°
2026-05-07 19:34 38.45139 30.10418 41188 ft 502 kts 162°
2026-05-07 19:34 38.38585 30.13500 41188 ft 502 kts 162°
2026-05-07 19:35 38.32035 30.16564 41206 ft 502 kts 163°
2026-05-07 19:35 38.25452 30.19552 41208 ft 502 kts 163°
2026-05-07 19:36 38.19985 30.22047 41202 ft 502 kts 163°
2026-05-07 19:36 38.13413 30.25077 41207 ft 502 kts 163°
2026-05-07 19:37 38.06836 30.28101 41210 ft 503 kts 163°
2026-05-07 19:37 38.00257 30.31112 41209 ft 503 kts 163°
2026-05-07 19:38 37.93663 30.34101 41203 ft 503 kts 163°
2026-05-07 19:38 37.87076 30.37072 41210 ft 502 kts 163°
2026-05-07 19:39 37.80493 30.40040 41219 ft 502 kts 163°
2026-05-07 19:39 37.73903 30.43008 41209 ft 503 kts 163°
2026-05-07 19:40 37.67343 30.45958 41204 ft 503 kts 163°
2026-05-07 19:40 37.60723 30.48928 41194 ft 504 kts 163°
2026-05-07 19:41 37.54115 30.51888 41185 ft 504 kts 163°
2026-05-07 19:41 37.47492 30.54849 41184 ft 505 kts 163°
2026-05-07 19:42 37.40867 30.57806 41177 ft 505 kts 163°
2026-05-07 19:42 37.34232 30.60760 41172 ft 506 kts 163°
2026-05-07 19:43 37.27594 30.63711 41171 ft 506 kts 163°
2026-05-07 19:43 37.20998 30.66639 41159 ft 506 kts 163°
2026-05-07 19:44 37.14350 30.69583 41153 ft 506 kts 163°
2026-05-07 19:44 37.07717 30.72516 41151 ft 505 kts 163°
2026-05-07 19:45 37.01089 30.75441 41155 ft 505 kts 163°
2026-05-07 19:45 36.94429 30.78212 41157 ft 502 kts 169°
2026-05-07 19:46 36.87570 30.79649 41158 ft 497 kts 180°
2026-05-07 19:46 36.80662 30.79903 41158 ft 496 kts 183°
2026-05-07 19:47 36.73795 30.80071 41148 ft 497 kts 182°
2026-05-07 19:47 36.66867 30.80293 41138 ft 499 kts 182°
2026-05-07 19:48 36.59922 30.80544 41138 ft 499 kts 182°
2026-05-07 19:48 36.52967 30.80796 41130 ft 500 kts 182°
2026-05-07 19:49 36.46006 30.81044 41127 ft 500 kts 182°
2026-05-07 19:49 36.39045 30.81287 41123 ft 501 kts 182°
2026-05-07 19:50 36.32077 30.81510 41113 ft 501 kts 182°
2026-05-07 19:50 36.25111 30.81729 41116 ft 501 kts 182°
2026-05-07 19:51 36.18138 30.81952 41118 ft 501 kts 182°
2026-05-07 19:51 36.11173 30.82175 41130 ft 501 kts 182°
2026-05-07 19:52 36.04286 30.83575 41112 ft 509 kts 161°
2026-05-07 19:52 35.98139 30.87933 41121 ft 513 kts 142°
2026-05-07 19:53 35.92606 30.93513 41117 ft 515 kts 141°
2026-05-07 19:53 35.87110 30.99102 41117 ft 516 kts 141°
2026-05-07 19:54 35.81533 31.04651 41122 ft 516 kts 142°
2026-05-07 19:54 35.75918 31.10160 41140 ft 515 kts 142°
2026-05-07 19:55 35.70306 31.15644 41137 ft 515 kts 142°
2026-05-07 19:55 35.64694 31.21123 41116 ft 514 kts 142°
2026-05-07 19:56 35.59094 31.26586 41137 ft 514 kts 142°
2026-05-07 19:56 35.53495 31.32040 41140 ft 513 kts 142°
2026-05-07 19:57 35.47904 31.37474 41133 ft 513 kts 142°
2026-05-07 19:57 35.42311 31.42902 41134 ft 512 kts 142°
2026-05-07 19:58 35.36753 31.48285 41132 ft 512 kts 142°
2026-05-07 19:58 35.31156 31.53696 41136 ft 512 kts 142°
2026-05-07 19:59 35.25564 31.59093 41136 ft 512 kts 142°
2026-05-07 19:59 35.19965 31.64486 41137 ft 512 kts 142°
2026-05-07 20:00 35.14371 31.69865 41136 ft 512 kts 142°
2026-05-07 20:00 35.08775 31.75237 41134 ft 511 kts 142°
2026-05-07 20:01 35.03182 31.80595 41135 ft 511 kts 142°
2026-05-07 20:01 34.97581 31.85953 41136 ft 511 kts 142°
2026-05-07 20:02 34.91983 31.91296 41136 ft 511 kts 142°
2026-05-07 20:02 34.86418 31.96600 41134 ft 510 kts 142°
2026-05-07 20:03 34.80814 32.01931 41127 ft 510 kts 142°
2026-05-07 20:03 34.75222 32.07242 41134 ft 510 kts 142°
2026-05-07 20:04 34.69620 32.12553 41135 ft 510 kts 143°
2026-05-07 20:04 34.64025 32.17847 41127 ft 510 kts 143°
2026-05-07 20:05 34.58429 32.23134 41128 ft 509 kts 143°
2026-05-07 20:05 34.52832 32.28411 41126 ft 509 kts 143°
2026-05-07 20:06 34.47246 32.33670 41123 ft 508 kts 143°
2026-05-07 20:06 34.41663 32.38916 41116 ft 507 kts 143°
2026-05-07 20:07 34.36126 32.44111 41115 ft 507 kts 143°
2026-05-07 20:07 34.30558 32.49325 41114 ft 506 kts 143°
2026-05-07 20:08 34.24989 32.54531 41114 ft 505 kts 143°
2026-05-07 20:08 34.19425 32.59725 41115 ft 505 kts 143°
2026-05-07 20:09 34.13845 32.64926 40474 ft 512 kts 143°
2026-05-07 20:09 34.11027 32.67548 39946 ft 509 kts 143°
2026-05-07 20:10 34.05298 32.72415 39160 ft 500 kts 149°
2026-05-07 20:10 34.02352 32.74610 38754 ft 496 kts 149°
2026-05-07 20:10 33.99410 32.76770 38248 ft 493 kts 149°
2026-05-07 20:10 33.96489 32.78909 37825 ft 489 kts 149°
2026-05-07 20:11 33.93603 32.81029 37437 ft 484 kts 149°
2026-05-07 20:11 33.92480 32.81857 37281 ft 482 kts 149°
2026-05-07 20:12 33.90233 32.83518 36966 ft 479 kts 149°
2026-05-07 20:12 33.87409 32.85612 36577 ft 474 kts 149°
2026-05-07 20:12 33.84609 32.87692 36176 ft 470 kts 149°
2026-05-07 20:13 33.81835 32.89752 35785 ft 467 kts 148°
2026-05-07 20:13 33.79081 32.91797 35366 ft 464 kts 148°
2026-05-07 20:13 33.76374 32.93805 34964 ft 461 kts 148°
2026-05-07 20:13 33.73654 32.95822 34566 ft 459 kts 148°
2026-05-07 20:14 33.70935 32.97835 34164 ft 456 kts 148°
2026-05-07 20:14 33.68236 32.99832 33687 ft 454 kts 148°
2026-05-07 20:14 33.65549 33.01818 33240 ft 452 kts 148°
2026-05-07 20:14 33.62877 33.03791 32811 ft 449 kts 148°
2026-05-07 20:15 33.60224 33.05749 32415 ft 446 kts 148°
2026-05-07 20:15 33.57587 33.07694 32006 ft 443 kts 148°
2026-05-07 20:15 33.54966 33.09626 31613 ft 441 kts 148°
2026-05-07 20:15 33.52362 33.11544 31211 ft 439 kts 148°
2026-05-07 20:16 33.49766 33.13454 30819 ft 436 kts 148°
2026-05-07 20:16 33.47187 33.15351 30421 ft 434 kts 148°
2026-05-07 20:16 33.44618 33.17240 30014 ft 433 kts 148°
2026-05-07 20:16 33.42055 33.19121 29556 ft 431 kts 148°
2026-05-07 20:17 33.39504 33.20994 29102 ft 429 kts 148°
2026-05-07 20:17 33.36966 33.22856 28677 ft 427 kts 148°
2026-05-07 20:17 33.34472 33.24684 28242 ft 425 kts 148°
2026-05-07 20:17 33.31951 33.26530 27809 ft 423 kts 148°
2026-05-07 20:18 33.29443 33.28366 27395 ft 422 kts 148°
2026-05-07 20:18 33.26945 33.30193 26973 ft 420 kts 148°
2026-05-07 20:18 33.24456 33.32013 26560 ft 419 kts 148°
2026-05-07 20:18 33.21974 33.33825 26147 ft 418 kts 148°
2026-05-07 20:19 33.19496 33.35634 25734 ft 416 kts 149°
2026-05-07 20:19 33.17028 33.37434 25320 ft 415 kts 149°
2026-05-07 20:19 33.14563 33.39231 24898 ft 415 kts 149°
2026-05-07 20:19 33.12092 33.41032 24504 ft 417 kts 149°
2026-05-07 20:20 33.09613 33.42836 24167 ft 417 kts 149°
2026-05-07 20:20 33.07145 33.44632 23912 ft 414 kts 149°
2026-05-07 20:20 33.04690 33.46417 23675 ft 411 kts 149°
2026-05-07 20:20 33.02255 33.48186 23299 ft 409 kts 149°
2026-05-07 20:21 32.99838 33.49941 22850 ft 406 kts 149°
2026-05-07 20:21 32.98244 33.51098 22545 ft 404 kts 149°
2026-05-07 20:21 32.95851 33.52834 22091 ft 401 kts 149°
2026-05-07 20:21 32.93476 33.54556 21650 ft 399 kts 149°
2026-05-07 20:22 32.91112 33.56268 21207 ft 397 kts 149°
2026-05-07 20:22 32.88761 33.57971 20763 ft 395 kts 149°
2026-05-07 20:22 32.86416 33.59668 20332 ft 393 kts 149°
2026-05-07 20:22 32.84099 33.61371 19896 ft 391 kts 147°
2026-05-07 20:23 32.81930 33.63313 19467 ft 390 kts 140°
2026-05-07 20:23 32.79965 33.65521 19048 ft 388 kts 134°
2026-05-07 20:23 32.78101 33.67834 18606 ft 387 kts 133°
2026-05-07 20:23 32.76249 33.70153 18091 ft 387 kts 133°
2026-05-07 20:24 32.74396 33.72470 17593 ft 386 kts 134°
2026-05-07 20:24 32.72546 33.74773 17187 ft 387 kts 134°
2026-05-07 20:24 32.70688 33.77075 16800 ft 383 kts 134°
2026-05-07 20:24 32.68845 33.79350 16343 ft 381 kts 134°
2026-05-07 20:25 32.67008 33.81614 15892 ft 379 kts 134°
2026-05-07 20:25 32.65181 33.83863 15425 ft 378 kts 134°
2026-05-07 20:25 32.63360 33.86103 14941 ft 377 kts 134°
2026-05-07 20:25 32.61542 33.88338 14493 ft 376 kts 135°
2026-05-07 20:26 32.59724 33.90573 14004 ft 375 kts 135°
2026-05-07 20:26 32.57912 33.92797 13487 ft 374 kts 135°
2026-05-07 20:26 32.56110 33.95007 12993 ft 372 kts 135°
2026-05-07 20:26 32.54336 33.97207 12713 ft 367 kts 134°
2026-05-07 20:27 32.52578 33.99403 12442 ft 369 kts 134°
2026-05-07 20:27 32.50811 34.01612 12162 ft 368 kts 134°
2026-05-07 20:27 32.49053 34.03808 11885 ft 367 kts 134°
2026-05-07 20:27 32.47318 34.05972 11621 ft 367 kts 134°
2026-05-07 20:28 32.45560 34.08161 11342 ft 367 kts 135°
2026-05-07 20:28 32.43782 34.10373 11115 ft 363 kts 135°
2026-05-07 20:28 32.42137 34.12536 10804 ft 355 kts 129°
2026-05-07 20:28 32.40721 34.14908 10536 ft 348 kts 124°
2026-05-07 20:29 32.39426 34.17295 10281 ft 341 kts 123°
2026-05-07 20:29 32.38162 34.19629 10038 ft 334 kts 124°
2026-05-07 20:29 32.36910 34.21888 9910 ft 322 kts 124°
2026-05-07 20:29 32.35682 34.24057 9768 ft 312 kts 125°
2026-05-07 20:30 32.34476 34.26167 9495 ft 307 kts 125°
2026-05-07 20:30 32.33318 34.28188 9142 ft 288 kts 125°
2026-05-07 20:30 32.32178 34.30170 8826 ft 295 kts 125°
2026-05-07 20:30 32.31022 34.32175 8530 ft 294 kts 124°
2026-05-07 20:31 32.29878 34.34160 8243 ft 291 kts 124°
2026-05-07 20:31 32.28747 34.36122 7961 ft 287 kts 124°
2026-05-07 20:31 32.27629 34.38062 7690 ft 284 kts 124°
2026-05-07 20:31 32.26520 34.39985 7426 ft 282 kts 124°
2026-05-07 20:32 32.25683 34.41436 7243 ft 282 kts 124°
2026-05-07 20:32 32.24566 34.43370 6957 ft 279 kts 124°
2026-05-07 20:32 32.23475 34.45258 6693 ft 278 kts 124°
2026-05-07 20:33 32.22387 34.47139 6437 ft 276 kts 124°
2026-05-07 20:33 32.21303 34.49006 6171 ft 274 kts 123°
2026-05-07 20:33 32.20230 34.50855 5898 ft 273 kts 123°
2026-05-07 20:33 32.19156 34.52705 5633 ft 273 kts 123°
2026-05-07 20:34 32.18082 34.54550 5372 ft 272 kts 123°
2026-05-07 20:34 32.17007 34.56399 5125 ft 272 kts 123°
2026-05-07 20:34 32.15971 34.58259 4846 ft 271 kts 120°
2026-05-07 20:34 32.15046 34.60182 4586 ft 268 kts 117°
2026-05-07 20:35 32.14131 34.62086 4319 ft 265 kts 118°
2026-05-07 20:35 32.13190 34.63945 4071 ft 263 kts 118°
2026-05-07 20:35 32.12245 34.65775 3815 ft 260 kts 119°
2026-05-07 20:35 32.11307 34.67584 3547 ft 255 kts 119°
2026-05-07 20:36 32.10401 34.69331 3219 ft 243 kts 118°
2026-05-07 20:36 32.09552 34.70970 3067 ft 225 kts 117°
2026-05-07 20:36 32.08746 34.72534 2834 ft 223 kts 118°
2026-05-07 20:36 32.07949 34.74076 2527 ft 215 kts 117°
2026-05-07 20:37 32.07194 34.75532 2322 ft 204 kts 117°
2026-05-07 20:37 32.06455 34.76964 2017 ft 205 kts 117°
2026-05-07 20:37 32.05734 34.78355 1729 ft 192 kts 117°
2026-05-07 20:37 32.05062 34.79652 1463 ft 179 kts 117°
2026-05-07 20:38 32.04439 34.80857 1293 ft 165 kts 117°
2026-05-07 20:38 32.03865 34.81966 1036 ft 151 kts 118°
2026-05-07 20:38 32.03340 34.82981 877 ft 143 kts 118°
2026-05-07 20:38 32.02827 34.83970 677 ft 140 kts 119°
2026-05-07 20:39 32.02329 34.84931 504 ft 138 kts 119°
2026-05-07 20:39 32.01824 34.85905 319 ft 136 kts 119°
2026-05-07 20:39 32.01333 34.86844 153 ft 137 kts 120°
2026-05-07 20:39 32.00869 34.87751 121 ft 110 kts 122°
2026-05-07 20:40 32.00551 34.88357 122 ft 66 kts 121°
2026-05-07 20:40 32.00363 34.88608 122 ft 13 kts 145°
2026-05-07 20:40 32.00293 34.88655 121 ft 11 kts 153°
2026-05-07 20:40 32.00206 34.88693 121 ft 14 kts 162°
2026-05-07 20:41 32.00116 34.88678 120 ft 14 kts 228°
2026-05-07 20:41 32.00132 34.88571 120 ft 14 kts 302°
2026-05-07 20:41 32.00180 34.88482 121 ft 9 kts 302°
2026-05-07 20:41 32.00214 34.88419 120 ft 9 kts 302°
2026-05-07 20:42 32.00246 34.88354 121 ft 9 kts 300°
2026-05-07 20:42 32.00279 34.88290 122 ft 9 kts 302°
2026-05-07 20:42 32.00313 34.88226 121 ft 9 kts 302°
2026-05-07 20:42 32.00346 34.88162 120 ft 9 kts 301°
2026-05-07 20:43 32.00380 34.88098 120 ft 9 kts 301°
2026-05-07 20:43 32.00413 34.88034 122 ft 9 kts 301°
2026-05-07 20:43 32.00446 34.87970 122 ft 9 kts 301°
2026-05-07 20:43 32.00479 34.87905 122 ft 9 kts 301°
2026-05-07 20:44 32.00512 34.87843 120 ft 9 kts 302°
2026-05-07 20:44 32.00545 34.87778 121 ft 9 kts 301°
2026-05-07 20:44 32.00579 34.87714 120 ft 9 kts 301°
2026-05-07 20:44 32.00612 34.87650 119 ft 9 kts 302°
2026-05-07 20:45 32.00646 34.87585 120 ft 11 kts 301°
2026-05-07 20:45 32.00687 34.87505 119 ft 12 kts 301°
2026-05-07 20:45 32.00728 34.87426 121 ft 10 kts 297°
2026-05-07 20:45 32.00685 34.87378 122 ft 9 kts 179°
2026-05-07 20:46 32.00668 34.87378 120 ft 2 kts 179°
2026-05-07 20:46 32.00656 34.87379 121 ft 2 kts 178°
2026-05-07 20:46 32.00654 34.87379 121 ft 0 kts 178°